DW8923 Weather Reports


time (UTC)temp
F
wind
direction
speed
knots
gust
knots
rain 1hr
in
rain 24hr
in
rain mn
in
humidity
%
barometer
mb
20260509173002 80 35 0.0 2.6 0.00 0.00 0.00 84 1009.8
20260509171503 79 75 0.0 4.3 0.00 0.00 0.00 81 1010.1
20260509170122 80 94 0.9 3.5 0.00 0.00 0.00 77 1010.2
20260509164604 81 146 2.6 7.0 0.00 0.00 0.00 74 1009.9
20260509163059 84 134 0.9 8.7 0.00 0.00 0.00 71 1009.7
20260509161559 86 243 0.0 3.5 0.00 0.00 0.00 63 1009.9
20260509160059 86 137 0.0 3.5 0.00 0.00 0.00 64 1009.7
20260509154555 86 142 1.7 4.3 0.00 0.00 0.00 66 1009.5
20260509153052 84 123 0.9 3.5 0.00 0.00 0.00 71 1009.5
20260509151602 83 132 0.9 4.3 0.00 0.00 0.00 72 1009.3
20260509150048 82 221 1.7 7.0 0.00 0.00 0.00 74 1009.1
20260509144540 81 210 3.5 9.6 0.00 0.00 0.00 76 1008.8
20260509143037 79 178 1.7 7.8 0.00 0.00 0.00 81 1008.5
20260509141531 78 148 2.6 8.7 0.00 0.00 0.00 84 1008.4
20260509140026 76 131 1.7 6.1 0.00 0.00 0.00 89 1008.6
20260509134521 74 209 0.9 7.0 0.00 0.00 0.00 93 1008.9
20260509133017 73 126 0.9 3.5 0.00 0.00 0.00 95 1008.6
20260509131513 72 155 0.9 4.3 0.00 0.00 0.00 95 1008.3
20260509130034 71 220 0.9 2.6 0.00 0.00 0.00 95 1008.5
20260509124526 71 159 0.0 2.6 0.00 0.00 0.00 95 1008.6
20260509123011 70 246 1.7 4.3 0.00 0.00 0.00 95 1008.7
20260509121508 70 296 0.0 1.7 0.00 0.00 0.00 95 1009.2
20260509120013 70 129 0.0 0.0 0.00 0.00 0.00 95 1009.2
20260509114505 70 227 0.0 0.0 0.00 0.00 0.00 95 1009.5
20260509113005 71 323 0.0 0.0 0.00 0.00 0.00 95 1010.1
20260509111504 71 323 0.0 0.0 0.00 0.00 0.00 95 1010.2
20260509110004 71 323 0.0 0.0 0.00 0.00 0.00 95 1010.4
20260509104505 71 323 0.0 0.0 0.00 0.00 0.00 95 1010.6
20260509103001 71 360 0.0 0.0 0.00 0.00 0.00 94 1010.7
20260509101658 71 291 0.0 0.0 0.00 0.00 0.00 94 1010.4
20260509100056 71 291 0.0 1.7 0.00 0.00 0.00 94 1010.2
20260509094601 71 36 0.0 0.0 0.00 0.02 0.00 94 1009.8
20260509093058 71 311 0.0 0.0 0.00 0.02 0.00 94 1009.8
20260509091557 71 164 0.0 0.0 0.00 0.02 0.00 94 1009.0
20260509090057 71 164 0.0 0.0 0.00 0.02 0.00 93 1008.9
20260509084602 71 164 0.0 0.0 0.00 0.02 0.00 93 1009.0
20260509083052 72 164 0.0 0.0 0.00 0.02 0.00 92 1009.4
20260509081557 72 164 0.0 0.0 0.00 0.02 0.00 93 1009.3
20260509080057 72 164 0.0 0.0 0.00 0.02 0.00 92 1009.4
20260509074547 72 164 0.0 0.0 0.00 0.02 0.00 93 1009.8
20260509073046 72 164 0.0 0.0 0.00 0.02 0.00 93 1009.8
20260509071538 72 164 0.0 0.0 0.00 0.02 0.00 93 1010.1
20260509070033 72 187 0.0 0.0 0.00 0.02 0.00 93 1009.8
20260509064529 72 170 0.0 0.0 0.00 0.02 0.00 93 1009.9
20260509063033 72 150 0.0 2.6 0.00 0.02 0.00 93 1009.9
20260509061522 72 165 0.9 2.6 0.00 0.02 0.00 93 1009.8
20260509060017 72 111 1.7 2.6 0.00 0.02 0.00 93 1010.0
20260509054512 72 101 0.0 2.6 0.00 0.02 0.00 92 1009.6
20260509053012 72 119 0.9 2.6 0.00 0.02 0.00 92 1008.8
20260509051506 71 99 0.0 1.7 0.00 0.02 0.00 92 1008.6
20260509050100 72 65 0.9 2.6 0.00 0.02 0.00 91 1008.4
20260509050003 72 87 0.0 1.7 0.00 0.02 0.00 91 1008.4
20260509044616 72 118 0.0 2.6 0.00 0.02 0.02 91 1008.4
20260509043058 72 119 0.9 1.7 0.00 0.02 0.02 91 1008.8
20260509041559 72 144 0.0 1.7 0.00 0.02 0.02 91 1009.0
20260509040057 71 135 0.0 0.0 0.00 0.02 0.02 91 1008.9
20260509034557 71 119 0.0 0.0 0.00 0.02 0.02 91 1009.0
20260509033057 71 119 0.0 0.0 0.00 0.02 0.02 91 1008.8
20260509031608 71 119 0.0 0.9 0.00 0.02 0.02 90 1008.7
20260509030057 72 117 0.0 2.6 0.00 0.02 0.02 90 1008.4
20260509024557 72 144 0.9 3.5 0.00 0.02 0.02 89 1008.3
20260509023106 72 125 0.9 3.5 0.00 0.02 0.02 89 1008.2
20260509021554 72 90 0.0 2.6 0.00 0.02 0.02 88 1008.2
20260509020054 73 123 0.0 2.6 0.00 0.02 0.02 87 1008.0
20260509014552 73 124 0.0 2.6 0.00 0.02 0.02 87 1007.8
20260509013052 74 86 0.0 3.5 0.00 0.02 0.02 86 1007.7
20260509011552 74 28 0.0 3.5 0.00 0.02 0.02 85 1007.7
20260509010052 74 131 2.6 7.0 0.00 0.02 0.02 85 1007.6
20260509004553 75 86 0.9 4.3 0.00 0.02 0.02 84 1007.7
20260509003050 75 88 0.9 5.2 0.00 0.02 0.02 83 1007.7
20260509001547 75 86 0.9 6.1 0.00 0.02 0.02 83 1007.7
20260509000047 75 98 0.9 4.3 0.00 0.02 0.02 83 1007.8
20260508234550 76 76 0.0 3.5 0.00 0.02 0.02 82 1007.9
20260508233050 76 54 0.9 4.3 0.00 0.02 0.02 81 1007.9
20260508231544 76 130 2.6 6.1 0.00 0.02 0.02 80 1007.8
20260508230107 77 40 0.9 4.3 0.00 0.02 0.02 79 1007.8
20260508224549 77 81 2.6 7.0 0.00 0.02 0.02 79 1007.8
20260508223041 77 136 2.6 7.0 0.00 0.02 0.02 78 1007.9
20260508221540 77 120 1.7 7.0 0.00 0.02 0.02 77 1007.9
20260508220108 77 108 1.7 6.1 0.00 0.02 0.02 76 1008.1
20260508214538 78 96 2.6 6.1 0.00 0.02 0.02 75 1008.3
20260508213037 78 107 2.6 7.0 0.00 0.02 0.02 75 1008.2
20260508211540 77 145 2.6 7.8 0.00 0.02 0.02 76 1008.5
20260508210033 77 39 1.7 6.1 0.00 0.02 0.02 77 1008.8
20260508204528 76 52 1.7 7.8 0.00 0.02 0.02 76 1009.1
20260508203023 76 5 0.9 7.8 0.00 0.02 0.02 77 1009.4
20260508201531 76 137 3.5 8.7 0.00 0.02 0.02 75 1009.6
20260508200018 76 97 2.6 7.0 0.00 0.02 0.02 77 1009.7
20260508194514 75 123 0.9 5.2 0.00 0.02 0.02 78 1009.9
20260508193010 74 11 1.7 7.0 0.00 0.02 0.02 76 1010.2
20260508191515 74 5 1.7 7.8 0.00 0.02 0.02 77 1010.2
20260508190004 74 99 1.7 6.1 0.00 0.02 0.02 78 1010.4
20260508184601 73 9 1.7 3.5 0.00 0.02 0.02 78 1010.7
20260508184500 73 5 1.7 3.5 0.00 0.02 0.02 79 1010.7
20260508183059 72 74 0.9 3.5 0.00 0.02 0.02 80 1010.9
20260508181607 72 36 0.9 3.5 0.00 0.02 0.02 80 1011.1
20260508180104 72 118 1.7 4.3 0.00 0.02 0.02 79 1011.2
20260508174602 71 321 0.9 4.3 0.00 0.02 0.02 79 1011.3